Time,TemperatureF,DewpointF,PressureIn,WindDirection,WindDirectionDegrees,WindSpeedMPH,WindSpeedGustMPH,Humidity,HourlyPrecipIn,Conditions,Clouds,dailyrainin,SoftwareType,DateUTC
2013-04-26 00:00:00,37.6,16.0,30.14,SW,218,5.6,5.6,41,0.00,,---,0.00,VWS V13.01,2013-04-26 05:00:00,
2013-04-26 00:05:00,37.6,16.0,30.14,SSW,201,6.0,6.0,41,0.00,,---,0.00,VWS V13.01,2013-04-26 05:05:00,
2013-04-26 00:11:00,37.6,16.0,30.14,SSW,208,4.7,6.0,41,0.00,,---,0.00,VWS V13.01,2013-04-26 05:11:00,
2013-04-26 00:16:00,37.6,16.0,30.14,SW,220,4.7,5.1,41,0.00,,---,0.00,VWS V13.01,2013-04-26 05:16:00,
2013-04-26 00:22:00,37.4,15.9,30.14,SSW,198,4.5,6.5,41,0.00,,---,0.00,VWS V13.01,2013-04-26 05:22:00,
2013-04-26 00:27:00,37.4,16.4,30.14,SSW,194,4.7,6.0,42,0.00,,---,0.00,VWS V13.01,2013-04-26 05:27:00,
2013-04-26 00:32:00,37.4,16.4,30.14,South,185,4.5,5.1,42,0.00,,---,0.00,VWS V13.01,2013-04-26 05:32:00,
2013-04-26 00:38:00,37.4,16.4,30.14,SSW,196,4.5,4.5,42,0.00,,---,0.00,VWS V13.01,2013-04-26 05:38:00,
2013-04-26 00:43:00,37.2,16.3,30.14,SSW,194,4.5,5.1,42,0.00,,---,0.00,VWS V13.01,2013-04-26 05:43:00,
2013-04-26 00:48:00,37.2,16.3,30.14,SSW,192,4.5,4.7,42,0.00,,---,0.00,VWS V13.01,2013-04-26 05:48:00,
2013-04-26 00:53:00,37.2,16.3,30.14,South,190,4.7,5.6,42,0.00,,---,0.00,VWS V13.01,2013-04-26 05:53:00,
2013-04-26 00:59:00,37.2,16.3,30.14,SSW,193,5.1,5.1,42,0.00,,---,0.00,VWS V13.01,2013-04-26 05:59:00,
2013-04-26 01:04:00,37.2,16.3,30.14,SSW,212,5.1,5.1,42,0.00,,---,0.00,VWS V13.01,2013-04-26 06:04:00,
2013-04-26 01:11:00,37.4,16.4,30.14,SSW,206,4.7,6.0,42,0.00,,---,0.00,VWS V13.01,2013-04-26 06:11:00,
2013-04-26 01:16:00,37.4,16.4,30.14,SSW,210,5.6,5.6,42,0.00,,---,0.00,VWS V13.01,2013-04-26 06:16:00,
2013-04-26 01:21:00,37.6,16.6,30.14,SW,216,5.6,5.6,42,0.00,,---,0.00,VWS V13.01,2013-04-26 06:21:00,
2013-04-26 01:26:00,37.6,16.6,30.14,SSW,208,4.7,6.0,42,0.00,,---,0.00,VWS V13.01,2013-04-26 06:26:00,
2013-04-26 01:32:00,37.8,16.8,30.14,SW,224,4.7,6.5,42,0.00,,---,0.00,VWS V13.01,2013-04-26 06:32:00,
2013-04-26 01:37:00,37.8,16.8,30.14,SSW,202,4.5,5.6,42,0.00,,---,0.00,VWS V13.01,2013-04-26 06:37:00,
2013-04-26 01:42:00,37.9,16.9,30.14,SSW,194,4.5,5.6,42,0.00,,---,0.00,VWS V13.01,2013-04-26 06:42:00,
2013-04-26 01:48:00,37.9,16.9,30.14,SSW,204,5.1,5.6,42,0.00,,---,0.00,VWS V13.01,2013-04-26 06:48:00,
2013-04-26 01:53:00,37.9,16.9,30.14,SSW,201,5.6,7.4,42,0.00,,---,0.00,VWS V13.01,2013-04-26 06:53:00,
2013-04-26 01:59:00,37.9,16.9,30.14,SSW,208,5.1,6.0,42,0.00,,---,0.00,VWS V13.01,2013-04-26 06:59:00,
2013-04-26 02:04:00,37.9,16.9,30.14,SSW,212,5.1,6.0,42,0.00,,---,0.00,VWS V13.01,2013-04-26 07:04:00,
2013-04-26 02:10:00,37.9,16.9,30.14,SW,216,6.0,7.4,42,0.00,,---,0.00,VWS V13.01,2013-04-26 07:10:00,
2013-04-26 02:15:00,38.1,17.6,30.11,SSW,198,6.0,6.9,43,0.00,,---,0.00,VWS V13.01,2013-04-26 07:15:00,
2013-04-26 02:20:00,38.1,17.1,30.11,SW,218,6.0,6.0,42,0.00,,---,0.00,VWS V13.01,2013-04-26 07:20:00,
2013-04-26 02:26:00,38.1,17.6,30.11,SSW,205,6.0,7.8,43,0.00,,---,0.00,VWS V13.01,2013-04-26 07:26:00,
2013-04-26 02:31:00,38.1,17.1,30.11,SW,220,5.1,7.8,42,0.00,,---,0.00,VWS V13.01,2013-04-26 07:31:00,
2013-04-26 02:37:00,38.3,17.8,30.11,South,188,5.6,5.6,43,0.00,,---,0.00,VWS V13.01,2013-04-26 07:37:00,
2013-04-26 02:43:00,38.3,17.2,30.11,SSW,207,6.0,6.0,42,0.00,,---,0.00,VWS V13.01,2013-04-26 07:43:00,
2013-04-26 02:49:00,38.1,17.1,30.11,South,188,4.7,6.0,42,0.00,,---,0.00,VWS V13.01,2013-04-26 07:49:00,
2013-04-26 02:54:00,38.3,17.8,30.11,SSW,212,5.1,5.1,43,0.00,,---,0.00,VWS V13.01,2013-04-26 07:54:00,
2013-04-26 03:00:00,38.1,17.6,30.14,SW,217,4.7,4.7,43,0.00,,---,0.00,VWS V13.01,2013-04-26 08:00:00,
2013-04-26 03:06:00,38.1,17.6,30.14,SSW,192,3.6,4.5,43,0.00,,---,0.00,VWS V13.01,2013-04-26 08:06:00,
2013-04-26 03:12:00,38.1,17.6,30.14,SSW,192,3.6,4.0,43,0.00,,---,0.00,VWS V13.01,2013-04-26 08:12:00,
2013-04-26 03:18:00,38.5,17.9,30.11,SSW,192,3.6,3.6,43,0.00,,---,0.00,VWS V13.01,2013-04-26 08:18:00,
2013-04-26 03:23:00,38.5,17.4,30.11,SSW,192,3.6,3.6,42,0.00,,---,0.00,VWS V13.01,2013-04-26 08:23:00,
2013-04-26 03:29:00,38.7,17.6,30.11,SSW,192,3.6,3.6,42,0.00,,---,0.00,VWS V13.01,2013-04-26 08:29:00,
2013-04-26 03:34:00,38.7,17.6,30.11,SSW,192,4.0,4.0,42,0.00,,---,0.00,VWS V13.01,2013-04-26 08:34:00,
2013-04-26 03:40:00,38.5,17.4,30.11,SSW,192,4.5,4.5,42,0.00,,---,0.00,VWS V13.01,2013-04-26 08:40:00,
2013-04-26 03:45:00,38.5,17.4,30.11,SE,141,4.5,5.1,42,0.00,,---,0.00,VWS V13.01,2013-04-26 08:45:00,
2013-04-26 03:50:00,38.5,17.4,30.11,South,175,4.0,4.0,42,0.00,,---,0.00,VWS V13.01,2013-04-26 08:50:00,
2013-04-26 03:56:00,38.5,17.9,30.11,SSE,159,4.0,4.5,43,0.00,,---,0.00,VWS V13.01,2013-04-26 08:56:00,
2013-04-26 04:01:00,38.3,17.8,30.11,South,176,2.7,3.6,43,0.00,,---,0.00,VWS V13.01,2013-04-26 09:01:00,
2013-04-26 04:07:00,38.1,18.1,30.11,South,176,0.0,0.0,44,0.00,,---,0.00,VWS V13.01,2013-04-26 09:07:00,
2013-04-26 04:12:00,38.1,18.1,30.11,South,176,0.0,0.0,44,0.00,,---,0.00,VWS V13.01,2013-04-26 09:12:00,
2013-04-26 04:18:00,38.1,18.1,30.11,South,176,0.0,0.0,44,0.00,,---,0.00,VWS V13.01,2013-04-26 09:18:00,
2013-04-26 04:24:00,38.3,17.8,30.11,South,176,0.0,0.0,43,0.00,,---,0.00,VWS V13.01,2013-04-26 09:24:00,
2013-04-26 04:29:00,38.3,17.8,30.11,South,176,0.0,0.0,43,0.00,,---,0.00,VWS V13.01,2013-04-26 09:29:00,
2013-04-26 04:35:00,38.5,17.9,30.11,SSW,203,4.5,4.5,43,0.00,,---,0.00,VWS V13.01,2013-04-26 09:35:00,
2013-04-26 04:40:00,38.3,17.8,30.11,SSE,164,4.5,4.5,43,0.00,,---,0.00,VWS V13.01,2013-04-26 09:40:00,
2013-04-26 04:46:00,38.3,18.8,30.11,South,181,4.0,4.5,45,0.00,,---,0.00,VWS V13.01,2013-04-26 09:46:00,
2013-04-26 04:51:00,38.1,20.2,30.11,South,173,4.5,4.7,48,0.00,,---,0.00,VWS V13.01,2013-04-26 09:51:00,
2013-04-26 04:57:00,37.9,21.0,30.11,SSE,168,4.7,5.1,50,0.00,,---,0.00,VWS V13.01,2013-04-26 09:57:00,
2013-04-26 05:03:00,37.6,21.6,30.11,South,171,4.0,4.0,52,0.00,,---,0.00,VWS V13.01,2013-04-26 10:03:00,
2013-04-26 05:08:00,37.4,21.9,30.11,South,171,3.6,4.5,53,0.04,,---,0.04,VWS V13.01,2013-04-26 10:08:00,
2013-04-26 05:14:00,37.0,22.4,30.08,South,170,3.1,3.6,55,0.04,,---,0.04,VWS V13.01,2013-04-26 10:14:00,
2013-04-26 05:19:00,36.9,22.6,30.08,South,170,0.0,0.0,56,0.04,,---,0.04,VWS V13.01,2013-04-26 10:19:00,
2013-04-26 05:25:00,36.7,23.3,30.08,South,170,0.0,0.0,58,0.04,,---,0.04,VWS V13.01,2013-04-26 10:25:00,
2013-04-26 05:30:00,36.3,23.4,30.08,South,170,0.0,0.0,59,0.04,,---,0.04,VWS V13.01,2013-04-26 10:30:00,
2013-04-26 05:35:00,36.3,24.2,30.08,South,170,4.7,4.7,61,0.04,,---,0.04,VWS V13.01,2013-04-26 10:35:00,
2013-04-26 05:41:00,36.3,25.0,30.08,South,180,3.6,4.5,63,0.04,,---,0.04,VWS V13.01,2013-04-26 10:41:00,
2013-04-26 05:46:00,36.3,25.3,30.08,SE,133,0.0,3.6,64,0.04,,---,0.04,VWS V13.01,2013-04-26 10:46:00,
2013-04-26 05:52:00,36.3,26.1,30.08,SSE,166,0.0,3.6,66,0.04,,---,0.04,VWS V13.01,2013-04-26 10:52:00,
2013-04-26 05:57:00,36.3,26.1,30.05,SSE,166,0.0,0.0,66,0.04,,---,0.04,VWS V13.01,2013-04-26 10:57:00,
2013-04-26 06:03:00,36.5,26.6,30.05,SSE,166,0.0,0.0,67,0.04,,---,0.04,VWS V13.01,2013-04-26 11:03:00,
2013-04-26 06:09:00,36.5,27.0,30.05,SSE,167,4.5,4.5,68,0.00,,---,0.04,VWS V13.01,2013-04-26 11:09:00,
2013-04-26 06:14:00,36.3,27.1,30.05,SSE,167,4.0,4.5,69,0.00,,---,0.04,VWS V13.01,2013-04-26 11:14:00,
2013-04-26 06:20:00,36.1,27.3,30.05,SSE,166,4.0,4.0,70,0.00,,---,0.04,VWS V13.01,2013-04-26 11:20:00,
2013-04-26 06:25:00,36.1,27.3,30.05,South,177,4.0,4.0,70,0.00,,---,0.04,VWS V13.01,2013-04-26 11:25:00,
2013-04-26 06:31:00,36.1,27.7,30.05,South,170,4.0,4.0,71,0.00,,---,0.04,VWS V13.01,2013-04-26 11:31:00,
2013-04-26 06:36:00,36.1,27.7,30.05,South,170,0.0,0.0,71,0.00,,---,0.04,VWS V13.01,2013-04-26 11:36:00,
2013-04-26 06:42:00,36.3,28.2,30.05,South,170,0.0,0.0,72,0.00,,---,0.04,VWS V13.01,2013-04-26 11:42:00,
2013-04-26 06:48:00,36.5,28.4,30.05,South,170,0.0,0.0,72,0.00,,---,0.04,VWS V13.01,2013-04-26 11:48:00,
2013-04-26 06:53:00,36.7,28.9,30.05,South,170,0.0,0.0,73,0.00,,---,0.04,VWS V13.01,2013-04-26 11:53:00,
2013-04-26 06:59:00,36.9,29.0,30.05,South,170,0.0,0.0,73,0.00,,---,0.04,VWS V13.01,2013-04-26 11:59:00,
2013-04-26 07:04:00,37.0,29.2,30.05,South,170,0.0,0.0,73,0.00,,---,0.04,VWS V13.01,2013-04-26 12:04:00,
2013-04-26 07:10:00,37.2,29.4,30.05,South,170,0.0,0.0,73,0.00,,---,0.04,VWS V13.01,2013-04-26 12:10:00,
2013-04-26 07:15:00,37.4,29.5,30.05,South,170,0.0,0.0,73,0.00,,---,0.04,VWS V13.01,2013-04-26 12:15:00,
2013-04-26 07:21:00,37.6,29.7,30.05,South,170,0.0,0.0,73,0.00,,---,0.04,VWS V13.01,2013-04-26 12:21:00,
2013-04-26 07:27:00,37.9,30.1,30.05,South,170,0.0,0.0,73,0.00,,---,0.04,VWS V13.01,2013-04-26 12:27:00,
2013-04-26 07:32:00,38.3,30.4,30.05,South,170,3.6,4.0,73,0.00,,---,0.04,VWS V13.01,2013-04-26 12:32:00,
2013-04-26 07:38:00,38.8,30.6,30.05,South,170,4.0,4.0,72,0.00,,---,0.04,VWS V13.01,2013-04-26 12:38:00,
2013-04-26 07:43:00,39.4,30.8,30.05,SE,145,4.5,4.5,71,0.00,,---,0.04,VWS V13.01,2013-04-26 12:43:00,
2013-04-26 07:49:00,40.3,30.2,30.05,South,171,4.5,4.5,67,0.00,,---,0.04,VWS V13.01,2013-04-26 12:49:00,
2013-04-26 07:55:00,40.5,28.5,30.05,South,183,5.1,5.1,62,0.00,,---,0.04,VWS V13.01,2013-04-26 12:55:00,
2013-04-26 08:00:00,40.8,27.2,30.05,SSE,164,3.6,5.1,58,0.00,,---,0.04,VWS V13.01,2013-04-26 13:00:00,
2013-04-26 08:05:00,41.4,26.9,30.05,SSE,151,4.5,4.7,56,0.00,,---,0.04,VWS V13.01,2013-04-26 13:05:00,
2013-04-26 08:10:00,41.5,26.1,30.05,South,185,4.7,4.7,54,0.00,,---,0.04,VWS V13.01,2013-04-26 13:10:00,
2013-04-26 08:15:00,41.7,25.9,30.05,SSE,167,4.5,4.7,53,0.00,,---,0.04,VWS V13.01,2013-04-26 13:15:00,
2013-04-26 08:20:00,42.1,25.7,30.05,South,181,4.7,4.7,52,0.00,,---,0.04,VWS V13.01,2013-04-26 13:20:00,
2013-04-26 08:26:00,42.3,25.4,30.05,SSE,165,4.5,5.1,51,0.00,,---,0.04,VWS V13.01,2013-04-26 13:26:00,
2013-04-26 08:31:00,42.6,25.8,30.05,SSE,163,5.1,5.6,51,0.00,,---,0.04,VWS V13.01,2013-04-26 13:31:00,
2013-04-26 08:36:00,43.0,25.1,30.05,SSE,164,5.6,5.6,49,0.00,,---,0.04,VWS V13.01,2013-04-26 13:36:00,
2013-04-26 08:41:00,43.3,25.5,30.05,SE,144,4.0,4.7,49,0.00,,---,0.04,VWS V13.01,2013-04-26 13:41:00,
2013-04-26 08:47:00,43.7,25.3,30.05,SSE,167,4.7,5.1,48,0.00,,---,0.04,VWS V13.01,2013-04-26 13:47:00,
2013-04-26 08:52:00,44.1,25.6,30.05,SSE,159,4.7,5.1,48,0.00,,---,0.04,VWS V13.01,2013-04-26 13:52:00,
2013-04-26 08:58:00,44.8,25.8,30.05,SSE,152,4.0,4.7,47,0.00,,---,0.04,VWS V13.01,2013-04-26 13:58:00,
2013-04-26 09:04:00,45.5,25.9,30.05,South,181,0.0,4.5,46,0.00,,---,0.04,VWS V13.01,2013-04-26 14:04:00,
2013-04-26 09:09:00,46.2,25.5,30.05,SSW,210,4.7,6.0,44,0.00,,---,0.04,VWS V13.01,2013-04-26 14:09:00,
2013-04-26 09:14:00,46.6,25.3,30.05,SSE,164,4.5,4.5,43,0.00,,---,0.04,VWS V13.01,2013-04-26 14:14:00,
2013-04-26 09:19:00,46.8,24.9,30.05,SW,230,4.7,4.7,42,0.00,,---,0.04,VWS V13.01,2013-04-26 14:19:00,
2013-04-26 09:24:00,46.9,25.1,30.05,SW,219,4.0,4.7,42,0.00,,---,0.04,VWS V13.01,2013-04-26 14:24:00,
2013-04-26 09:29:00,47.3,24.8,30.05,South,176,4.0,5.1,41,0.00,,---,0.04,VWS V13.01,2013-04-26 14:29:00,
2013-04-26 09:35:00,47.8,25.3,30.05,SW,235,3.1,6.0,41,0.00,,---,0.04,VWS V13.01,2013-04-26 14:35:00,
2013-04-26 09:40:00,48.0,24.9,30.05,SSE,154,3.1,3.1,40,0.00,,---,0.04,VWS V13.01,2013-04-26 14:40:00,
2013-04-26 09:45:00,48.2,25.0,30.05,SSW,197,3.6,5.6,40,0.00,,---,0.04,VWS V13.01,2013-04-26 14:45:00,
2013-04-26 09:50:00,48.6,25.4,30.05,SSW,193,4.0,4.7,40,0.00,,---,0.04,VWS V13.01,2013-04-26 14:50:00,
2013-04-26 09:56:00,48.9,25.1,30.05,SSW,208,4.0,4.5,39,0.00,,---,0.04,VWS V13.01,2013-04-26 14:56:00,
2013-04-26 10:01:00,49.5,25.5,30.05,South,184,6.5,6.5,39,0.00,,---,0.04,VWS V13.01,2013-04-26 15:01:00,
2013-04-26 10:07:00,50.0,25.4,30.05,SSW,205,3.6,5.6,38,0.00,,---,0.04,VWS V13.01,2013-04-26 15:07:00,
2013-04-26 10:13:00,50.9,26.2,30.05,SW,222,7.4,7.8,38,0.00,,---,0.04,VWS V13.01,2013-04-26 15:13:00,
2013-04-26 10:19:00,51.1,25.7,30.05,SSE,162,5.6,5.6,37,0.00,,---,0.04,VWS V13.01,2013-04-26 15:19:00,
2013-04-26 10:25:00,51.4,26.0,30.05,South,179,4.5,5.6,37,0.00,,---,0.04,VWS V13.01,2013-04-26 15:25:00,
2013-04-26 10:31:00,51.6,26.2,30.05,SW,222,5.1,5.1,37,0.00,,---,0.04,VWS V13.01,2013-04-26 15:31:00,
2013-04-26 10:36:00,52.3,26.9,30.05,SW,229,3.1,4.5,37,0.00,,---,0.04,VWS V13.01,2013-04-26 15:36:00,
2013-04-26 10:42:00,52.9,26.7,30.05,SW,221,4.5,6.0,36,0.00,,---,0.04,VWS V13.01,2013-04-26 15:42:00,
2013-04-26 10:47:00,53.1,26.8,30.05,South,173,4.7,6.0,36,0.00,,---,0.04,VWS V13.01,2013-04-26 15:47:00,
2013-04-26 10:53:00,53.6,27.3,30.05,South,190,4.0,4.0,36,0.00,,---,0.04,VWS V13.01,2013-04-26 15:53:00,
2013-04-26 10:58:00,54.5,28.1,30.05,West,280,5.6,6.0,36,0.00,,---,0.04,VWS V13.01,2013-04-26 15:58:00,
2013-04-26 11:03:00,54.9,27.8,30.05,SW,229,8.3,8.3,35,0.00,,---,0.04,VWS V13.01,2013-04-26 16:03:00,
2013-04-26 11:09:00,55.0,27.9,30.05,SSE,147,4.5,6.5,35,0.00,,---,0.04,VWS V13.01,2013-04-26 16:09:00,
2013-04-26 11:14:00,55.2,28.1,30.05,SSW,213,5.6,5.6,35,0.00,,---,0.04,VWS V13.01,2013-04-26 16:14:00,
2013-04-26 11:20:00,55.6,27.7,30.05,SW,225,8.3,8.3,34,0.00,,---,0.04,VWS V13.01,2013-04-26 16:20:00,
2013-04-26 11:25:00,55.6,27.7,30.05,SW,215,7.8,7.8,34,0.00,,---,0.04,VWS V13.01,2013-04-26 16:25:00,
2013-04-26 11:31:00,55.9,28.0,30.05,SW,226,6.5,6.5,34,0.00,,---,0.04,VWS V13.01,2013-04-26 16:31:00,
2013-04-26 11:36:00,56.1,28.1,30.05,SSW,209,6.0,6.0,34,0.00,,---,0.04,VWS V13.01,2013-04-26 16:36:00,
2013-04-26 11:42:00,56.5,28.5,30.05,South,189,5.1,5.1,34,0.00,,---,0.04,VWS V13.01,2013-04-26 16:42:00,
2013-04-26 11:47:00,56.8,28.1,30.05,SSW,196,4.5,7.8,33,0.00,,---,0.04,VWS V13.01,2013-04-26 16:47:00,
2013-04-26 11:53:00,56.8,28.1,30.05,SW,230,4.7,7.4,33,0.00,,---,0.04,VWS V13.01,2013-04-26 16:53:00,
2013-04-26 11:59:00,57.2,27.6,30.05,SSW,197,5.6,6.9,32,0.00,,---,0.04,VWS V13.01,2013-04-26 16:59:00,
2013-04-26 12:04:00,57.6,28.0,30.05,SSW,212,6.0,7.4,32,0.00,,---,0.04,VWS V13.01,2013-04-26 17:04:00,
2013-04-26 12:09:00,57.6,28.0,30.05,South,187,6.9,6.9,32,0.00,,---,0.04,VWS V13.01,2013-04-26 17:09:00,
2013-04-26 12:14:00,57.7,27.3,30.02,SSW,203,5.6,5.6,31,0.00,,---,0.04,VWS V13.01,2013-04-26 17:14:00,
2013-04-26 12:20:00,58.3,27.8,30.02,SSW,210,4.7,8.7,31,0.00,,---,0.04,VWS V13.01,2013-04-26 17:20:00,
2013-04-26 12:25:00,58.5,28.0,30.02,SW,222,8.7,8.7,31,0.00,,---,0.04,VWS V13.01,2013-04-26 17:25:00,
2013-04-26 12:31:00,58.8,28.3,30.02,South,183,7.4,8.3,31,0.00,,---,0.04,VWS V13.01,2013-04-26 17:31:00,
2013-04-26 12:36:00,58.8,28.3,30.02,South,169,6.0,6.0,31,0.00,,---,0.04,VWS V13.01,2013-04-26 17:36:00,
2013-04-26 12:41:00,59.2,27.8,30.02,SSW,193,7.8,7.8,30,0.00,,---,0.04,VWS V13.01,2013-04-26 17:41:00,
2013-04-26 12:47:00,59.4,27.9,30.02,SSW,200,4.7,5.1,30,0.00,,---,0.04,VWS V13.01,2013-04-26 17:47:00,
2013-04-26 12:52:00,59.7,28.3,30.02,SSW,197,6.0,7.4,30,0.00,,---,0.04,VWS V13.01,2013-04-26 17:52:00,
2013-04-26 12:58:00,60.1,27.7,30.02,SSE,163,6.0,6.9,29,0.00,,---,0.04,VWS V13.01,2013-04-26 17:58:00,
2013-04-26 13:03:00,60.4,28.1,30.02,SSW,201,4.7,4.7,29,0.00,,---,0.04,VWS V13.01,2013-04-26 18:03:00,
2013-04-26 13:09:00,60.8,28.4,30.02,SSW,207,3.6,4.7,29,0.00,,---,0.04,VWS V13.01,2013-04-26 18:09:00,
2013-04-26 13:15:00,61.5,28.1,30.02,SSE,168,4.7,6.0,28,0.00,,---,0.04,VWS V13.01,2013-04-26 18:15:00,
2013-04-26 13:20:00,61.7,28.3,30.02,SSW,192,5.6,5.6,28,0.00,,---,0.04,VWS V13.01,2013-04-26 18:20:00,
2013-04-26 13:25:00,61.5,28.1,30.02,South,169,7.4,7.8,28,0.00,,---,0.04,VWS V13.01,2013-04-26 18:25:00,
2013-04-26 13:31:00,61.5,28.1,30.02,SW,219,5.6,6.9,28,0.00,,---,0.04,VWS V13.01,2013-04-26 18:31:00,
2013-04-26 13:36:00,61.5,28.1,30.02,SE,129,5.1,5.1,28,0.00,,---,0.04,VWS V13.01,2013-04-26 18:36:00,
2013-04-26 13:41:00,61.7,28.3,30.02,SSE,157,4.0,4.5,28,0.00,,---,0.04,VWS V13.01,2013-04-26 18:41:00,
2013-04-26 13:46:00,62.4,28.0,30.02,SSE,165,4.5,6.0,27,0.00,,---,0.04,VWS V13.01,2013-04-26 18:46:00,
2013-04-26 13:52:00,62.8,28.3,30.02,South,191,5.1,6.0,27,0.00,,---,0.04,VWS V13.01,2013-04-26 18:52:00,
2013-04-26 13:58:00,63.0,28.5,30.02,SSE,161,3.1,6.0,27,0.00,,---,0.04,VWS V13.01,2013-04-26 18:58:00,
2013-04-26 14:03:00,63.0,27.6,30.02,South,175,5.6,5.6,26,0.00,,---,0.04,VWS V13.01,2013-04-26 19:03:00,
2013-04-26 14:09:00,63.0,28.5,30.02,South,173,3.1,6.0,27,0.00,,---,0.04,VWS V13.01,2013-04-26 19:09:00,
2013-04-26 14:15:00,63.1,27.7,30.05,South,176,6.5,6.5,26,0.00,,---,0.04,VWS V13.01,2013-04-26 19:15:00,
2013-04-26 14:20:00,63.1,27.7,30.05,SSW,196,4.0,6.5,26,0.00,,---,0.04,VWS V13.01,2013-04-26 19:20:00,
2013-04-26 14:26:00,63.3,27.9,30.05,SSW,205,4.7,7.4,26,0.00,,---,0.04,VWS V13.01,2013-04-26 19:26:00,
2013-04-26 14:31:00,63.3,27.9,30.05,ESE,120,0.0,4.5,26,0.00,,---,0.04,VWS V13.01,2013-04-26 19:31:00,
2013-04-26 14:36:00,63.5,28.0,30.05,South,182,6.5,6.9,26,0.00,,---,0.04,VWS V13.01,2013-04-26 19:36:00,
2013-04-26 14:42:00,63.9,28.3,30.05,SW,215,8.9,8.9,26,0.00,,---,0.04,VWS V13.01,2013-04-26 19:42:00,
2013-04-26 14:47:00,63.9,28.3,30.05,SSE,162,4.7,5.1,26,0.00,,---,0.04,VWS V13.01,2013-04-26 19:47:00,
2013-04-26 14:52:00,64.2,28.6,30.05,SE,129,5.6,7.8,26,0.00,,---,0.04,VWS V13.01,2013-04-26 19:52:00,
2013-04-26 14:58:00,64.2,28.6,30.05,SSW,212,6.0,6.0,26,0.00,,---,0.04,VWS V13.01,2013-04-26 19:58:00,
2013-04-26 15:04:00,64.8,28.1,30.05,South,175,5.1,6.9,25,0.00,,---,0.04,VWS V13.01,2013-04-26 20:04:00,
2013-04-26 15:10:00,65.1,28.5,30.05,South,190,5.6,8.9,25,0.00,,---,0.04,VWS V13.01,2013-04-26 20:10:00,
2013-04-26 15:15:00,65.3,28.6,30.02,SW,235,6.5,6.5,25,0.00,,---,0.04,VWS V13.01,2013-04-26 20:15:00,
2013-04-26 15:21:00,65.1,28.5,30.02,SSW,205,3.6,6.0,25,0.00,,---,0.04,VWS V13.01,2013-04-26 20:21:00,
2013-04-26 15:26:00,65.5,28.8,30.02,South,189,5.6,6.9,25,0.00,,---,0.04,VWS V13.01,2013-04-26 20:26:00,
2013-04-26 15:32:00,65.8,29.1,30.02,SSE,164,6.0,6.9,25,0.00,,---,0.04,VWS V13.01,2013-04-26 20:32:00,
2013-04-26 15:37:00,65.8,29.1,30.02,SW,228,7.4,8.7,25,0.00,,---,0.04,VWS V13.01,2013-04-26 20:37:00,
2013-04-26 15:42:00,65.8,29.1,30.05,South,188,4.5,4.5,25,0.00,,---,0.04,VWS V13.01,2013-04-26 20:42:00,
2013-04-26 15:47:00,66.0,29.2,30.05,SSW,198,9.4,9.4,25,0.00,,---,0.04,VWS V13.01,2013-04-26 20:47:00,
2013-04-26 15:52:00,65.8,29.1,30.05,SE,144,5.6,6.0,25,0.00,,---,0.04,VWS V13.01,2013-04-26 20:52:00,
2013-04-26 15:57:00,66.0,29.2,30.05,SW,214,10.7,10.7,25,0.00,,---,0.04,VWS V13.01,2013-04-26 20:57:00,
2013-04-26 16:03:00,65.7,28.9,30.05,SSW,212,5.1,6.9,25,0.00,,---,0.04,VWS V13.01,2013-04-26 21:03:00,
2013-04-26 16:09:00,65.5,28.8,30.05,South,175,3.1,5.1,25,0.00,,---,0.04,VWS V13.01,2013-04-26 21:09:00,
2013-04-26 16:14:00,65.1,28.5,30.05,WSW,241,6.9,6.9,25,0.00,,---,0.04,VWS V13.01,2013-04-26 21:14:00,
2013-04-26 16:20:00,65.5,28.8,30.05,South,190,4.0,5.1,25,0.00,,---,0.04,VWS V13.01,2013-04-26 21:20:00,
2013-04-26 16:25:00,65.8,29.1,30.05,SSW,211,5.6,6.9,25,0.00,,---,0.04,VWS V13.01,2013-04-26 21:25:00,
2013-04-26 16:30:00,66.0,29.2,30.05,WSW,243,5.1,5.1,25,0.00,,---,0.04,VWS V13.01,2013-04-26 21:30:00,
2013-04-26 16:35:00,66.2,28.4,30.05,WSW,249,4.5,4.7,24,0.00,,---,0.04,VWS V13.01,2013-04-26 21:35:00,
2013-04-26 16:41:00,66.6,28.7,30.05,South,185,4.7,5.6,24,0.00,,---,0.04,VWS V13.01,2013-04-26 21:41:00,
2013-04-26 16:46:00,66.2,28.4,30.05,SW,219,7.4,7.4,24,0.00,,---,0.04,VWS V13.01,2013-04-26 21:46:00,
2013-04-26 16:52:00,65.7,28.9,30.05,SW,221,0.0,5.6,25,0.00,,---,0.04,VWS V13.01,2013-04-26 21:52:00,
2013-04-26 16:57:00,65.5,28.8,30.05,West,264,0.0,5.6,25,0.00,,---,0.04,VWS V13.01,2013-04-26 21:57:00,
2013-04-26 17:02:00,65.5,28.8,30.05,ESE,122,0.0,2.7,25,0.00,,---,0.04,VWS V13.01,2013-04-26 22:02:00,
2013-04-26 17:07:00,65.7,28.9,30.05,North,350,0.0,0.0,25,0.00,,---,0.04,VWS V13.01,2013-04-26 22:07:00,
2013-04-26 17:13:00,65.7,28.9,30.05,NNE,30,0.0,3.6,25,0.00,,---,0.04,VWS V13.01,2013-04-26 22:13:00,
2013-04-26 17:18:00,65.1,27.5,30.05,NE,48,5.1,5.1,24,0.00,,---,0.04,VWS V13.01,2013-04-26 22:18:00,
2013-04-26 17:24:00,62.8,26.5,30.05,East,88,3.6,4.7,25,0.00,,---,0.04,VWS V13.01,2013-04-26 22:24:00,
2013-04-26 17:29:00,61.3,26.2,30.05,ENE,61,2.7,4.0,26,0.00,,---,0.04,VWS V13.01,2013-04-26 22:29:00,
2013-04-26 17:34:00,61.0,25.9,30.05,ENE,65,2.7,3.6,26,0.00,,---,0.04,VWS V13.01,2013-04-26 22:34:00,
2013-04-26 17:40:00,60.8,25.7,30.05,ENE,72,0.0,0.0,26,0.00,,---,0.04,VWS V13.01,2013-04-26 22:40:00,
2013-04-26 17:45:00,60.6,25.6,30.05,ENE,64,2.7,4.5,26,0.00,,---,0.04,VWS V13.01,2013-04-26 22:45:00,
2013-04-26 17:50:00,59.5,24.6,30.05,ENE,70,4.0,4.5,26,0.00,,---,0.04,VWS V13.01,2013-04-26 22:50:00,
2013-04-26 17:55:00,58.3,24.5,30.05,NE,48,4.7,4.7,27,0.00,,---,0.04,VWS V13.01,2013-04-26 22:55:00,
2013-04-26 18:01:00,57.6,23.9,30.08,NE,48,4.0,4.5,27,0.00,,---,0.04,VWS V13.01,2013-04-26 23:01:00,
2013-04-26 18:06:00,56.7,24.0,30.08,ENE,67,3.1,4.5,28,0.00,,---,0.04,VWS V13.01,2013-04-26 23:06:00,
2013-04-26 18:12:00,56.3,23.6,30.08,NNE,29,4.7,4.7,28,0.00,,---,0.04,VWS V13.01,2013-04-26 23:12:00,
2013-04-26 18:18:00,56.1,23.5,30.08,East,98,3.6,5.1,28,0.00,,---,0.04,VWS V13.01,2013-04-26 23:18:00,
2013-04-26 18:23:00,55.9,23.3,30.08,NE,37,4.7,4.7,28,0.00,,---,0.04,VWS V13.01,2013-04-26 23:23:00,
2013-04-26 18:29:00,55.8,24.0,30.08,NNE,32,3.1,3.6,29,0.00,,---,0.04,VWS V13.01,2013-04-26 23:29:00,
2013-04-26 18:34:00,55.6,23.9,30.08,North,9,0.0,0.0,29,0.00,,---,0.04,VWS V13.01,2013-04-26 23:34:00,
2013-04-26 18:39:00,55.4,23.7,30.08,NNE,32,4.5,4.5,29,0.00,,---,0.04,VWS V13.01,2013-04-26 23:39:00,
2013-04-26 18:44:00,55.2,23.5,30.08,NNE,30,4.0,4.0,29,0.00,,---,0.04,VWS V13.01,2013-04-26 23:44:00,
2013-04-26 18:49:00,55.2,24.4,30.08,NE,35,4.5,4.7,30,0.00,,---,0.04,VWS V13.01,2013-04-26 23:49:00,
2013-04-26 18:54:00,55.0,24.2,30.08,NE,48,3.1,3.6,30,0.00,,---,0.04,VWS V13.01,2013-04-26 23:54:00,
2013-04-26 19:06:00,54.9,24.0,30.08,NNE,20,0.0,0.0,30,0.00,,---,0.04,VWS V13.01,2013-04-27 00:06:00,
2013-04-26 19:11:00,54.7,23.9,30.08,NNE,20,0.0,0.0,30,0.00,,---,0.04,VWS V13.01,2013-04-27 00:11:00,
2013-04-26 19:16:00,54.7,23.9,30.08,NNE,20,0.0,0.0,30,0.00,,---,0.04,VWS V13.01,2013-04-27 00:16:00,
2013-04-26 19:21:00,54.5,23.7,30.08,NNE,20,0.0,0.0,30,0.00,,---,0.04,VWS V13.01,2013-04-27 00:21:00,
2013-04-26 19:27:00,54.0,23.2,30.08,NNE,20,0.0,0.0,30,0.00,,---,0.04,VWS V13.01,2013-04-27 00:27:00,
2013-04-26 19:32:00,53.4,23.6,30.08,NNE,20,0.0,0.0,31,0.00,,---,0.04,VWS V13.01,2013-04-27 00:32:00,
2013-04-26 19:37:00,53.1,23.2,30.08,NNE,20,0.0,0.0,31,0.00,,---,0.04,VWS V13.01,2013-04-27 00:37:00,
2013-04-26 19:42:00,52.7,22.9,30.08,NNE,20,0.0,0.0,31,0.00,,---,0.04,VWS V13.01,2013-04-27 00:42:00,
2013-04-26 19:48:00,52.3,23.4,30.08,NNE,20,0.0,0.0,32,0.00,,---,0.04,VWS V13.01,2013-04-27 00:48:00,
2013-04-26 19:54:00,52.2,23.2,30.08,NNE,20,0.0,0.0,32,0.00,,---,0.04,VWS V13.01,2013-04-27 00:54:00,
2013-04-26 19:59:00,51.8,22.9,30.08,NNE,20,0.0,0.0,32,0.00,,---,0.04,VWS V13.01,2013-04-27 00:59:00,
2013-04-26 20:04:00,51.3,23.2,30.08,NNE,20,0.0,0.0,33,0.00,,---,0.04,VWS V13.01,2013-04-27 01:04:00,
2013-04-26 20:10:00,50.5,23.2,30.08,NNE,20,0.0,0.0,34,0.00,,---,0.04,VWS V13.01,2013-04-27 01:10:00,
2013-04-26 20:16:00,49.8,23.3,30.11,NNE,20,0.0,0.0,35,0.00,,---,0.04,VWS V13.01,2013-04-27 01:16:00,
2013-04-26 20:21:00,49.3,23.5,30.11,NNE,20,0.0,0.0,36,0.00,,---,0.04,VWS V13.01,2013-04-27 01:21:00,
2013-04-26 20:27:00,48.6,23.5,30.11,NNE,20,0.0,0.0,37,0.00,,---,0.04,VWS V13.01,2013-04-27 01:27:00,
2013-04-26 20:33:00,47.7,23.3,30.11,NNE,20,0.0,0.0,38,0.00,,---,0.04,VWS V13.01,2013-04-27 01:33:00,
2013-04-26 20:38:00,47.1,22.8,30.11,NNE,20,0.0,0.0,38,0.00,,---,0.04,VWS V13.01,2013-04-27 01:38:00,
2013-04-26 20:44:00,46.8,22.5,30.11,NNE,20,0.0,0.0,38,0.00,,---,0.04,VWS V13.01,2013-04-27 01:44:00,
2013-04-26 20:50:00,46.4,22.8,30.11,NNE,20,0.0,0.0,39,0.00,,---,0.04,VWS V13.01,2013-04-27 01:50:00,
2013-04-26 20:55:00,46.2,22.6,30.11,NNE,20,0.0,0.0,39,0.00,,---,0.04,VWS V13.01,2013-04-27 01:55:00,
2013-04-26 21:00:00,46.0,23.1,30.11,NNE,20,0.0,0.0,40,0.00,,---,0.04,VWS V13.01,2013-04-27 02:00:00,
2013-04-26 21:05:00,45.7,22.8,30.11,NNE,20,0.0,0.0,40,0.00,,---,0.04,VWS V13.01,2013-04-27 02:05:00,
2013-04-26 21:11:00,45.3,22.4,30.11,NNE,20,0.0,0.0,40,0.00,,---,0.04,VWS V13.01,2013-04-27 02:11:00,
2013-04-26 21:16:00,45.1,22.9,30.11,NNE,20,0.0,0.0,41,0.00,,---,0.04,VWS V13.01,2013-04-27 02:16:00,
2013-04-26 21:21:00,45.1,22.9,30.11,NNE,20,0.0,0.0,41,0.00,,---,0.04,VWS V13.01,2013-04-27 02:21:00,
2013-04-26 21:26:00,44.8,23.1,30.11,NNE,20,0.0,0.0,42,0.00,,---,0.04,VWS V13.01,2013-04-27 02:26:00,
2013-04-26 21:32:00,44.2,22.6,30.11,NNE,20,0.0,0.0,42,0.00,,---,0.04,VWS V13.01,2013-04-27 02:32:00,
2013-04-26 21:38:00,44.2,23.2,30.11,NNE,20,0.0,0.0,43,0.00,,---,0.04,VWS V13.01,2013-04-27 02:38:00,
2013-04-26 21:43:00,44.4,23.3,30.14,NNE,20,0.0,0.0,43,0.00,,---,0.04,VWS V13.01,2013-04-27 02:43:00,
2013-04-26 21:49:00,44.1,23.0,30.14,NNE,20,0.0,0.0,43,0.00,,---,0.04,VWS V13.01,2013-04-27 02:49:00,
2013-04-26 21:54:00,43.7,22.7,30.14,NNE,20,0.0,0.0,43,0.00,,---,0.04,VWS V13.01,2013-04-27 02:54:00,
2013-04-26 22:00:00,43.5,23.1,30.14,NNE,20,0.0,0.0,44,0.00,,---,0.04,VWS V13.01,2013-04-27 03:00:00,
2013-04-26 22:05:00,43.7,23.2,30.14,NNE,20,0.0,0.0,44,0.00,,---,0.04,VWS V13.01,2013-04-27 03:05:00,
2013-04-26 22:10:00,43.7,23.2,30.14,NNE,20,0.0,0.0,44,0.00,,---,0.04,VWS V13.01,2013-04-27 03:10:00,
2013-04-26 22:16:00,43.5,23.1,30.14,NNE,20,0.0,0.0,44,0.00,,---,0.04,VWS V13.01,2013-04-27 03:16:00,
2013-04-26 22:21:00,43.0,23.1,30.14,NNE,20,0.0,0.0,45,0.00,,---,0.04,VWS V13.01,2013-04-27 03:21:00,
2013-04-26 22:27:00,42.8,23.5,30.14,NNE,20,0.0,0.0,46,0.00,,---,0.04,VWS V13.01,2013-04-27 03:27:00,
2013-04-26 22:32:00,42.4,23.6,30.14,NNE,20,0.0,0.0,47,0.00,,---,0.04,VWS V13.01,2013-04-27 03:32:00,
2013-04-26 22:37:00,42.4,23.6,30.14,NNE,20,0.0,0.0,47,0.00,,---,0.04,VWS V13.01,2013-04-27 03:37:00,
2013-04-26 22:43:00,42.6,24.3,30.14,NNE,20,0.0,0.0,48,0.00,,---,0.04,VWS V13.01,2013-04-27 03:43:00,
2013-04-26 22:48:00,42.6,24.3,30.14,NNE,20,0.0,0.0,48,0.00,,---,0.04,VWS V13.01,2013-04-27 03:48:00,
2013-04-26 22:54:00,42.3,24.0,30.14,NNE,20,0.0,0.0,48,0.00,,---,0.04,VWS V13.01,2013-04-27 03:54:00,
2013-04-26 22:59:00,42.1,23.8,30.14,NNE,20,0.0,0.0,48,0.00,,---,0.04,VWS V13.01,2013-04-27 03:59:00,
2013-04-26 23:01:00,41.9,23.7,30.14,NNE,20,0.0,0.0,48,0.00,,---,0.04,VWS V13.01,2013-04-27 04:01:00,
2013-04-26 23:02:00,41.7,23.5,30.14,NNE,20,0.0,0.0,48,0.00,,---,0.04,VWS V13.01,2013-04-27 04:02:00,
2013-04-26 23:03:00,41.7,23.5,30.14,NNE,20,0.0,0.0,48,0.00,,---,0.04,VWS V13.01,2013-04-27 04:03:00,
2013-04-26 23:05:00,42.1,24.3,30.14,NNE,20,0.0,0.0,49,0.00,,---,0.04,VWS V13.01,2013-04-27 04:05:00,
2013-04-26 23:10:00,42.3,24.0,30.14,NNE,20,0.0,0.0,48,0.00,,---,0.04,VWS V13.01,2013-04-27 04:10:00,
2013-04-26 23:15:00,42.6,24.8,30.14,NNE,20,0.0,0.0,49,0.00,,---,0.04,VWS V13.01,2013-04-27 04:15:00,
2013-04-26 23:20:00,43.5,25.6,30.14,NNE,20,0.0,0.0,49,0.00,,---,0.04,VWS V13.01,2013-04-27 04:20:00,
2013-04-26 23:26:00,45.0,26.5,30.14,NNE,20,0.0,0.0,48,0.00,,---,0.04,VWS V13.01,2013-04-27 04:26:00,
2013-04-26 23:31:00,45.5,26.5,30.14,NNE,20,0.0,0.0,47,0.00,,---,0.04,VWS V13.01,2013-04-27 04:31:00,
2013-04-26 23:36:00,45.7,26.1,30.14,NNE,20,0.0,0.0,46,0.00,,---,0.04,VWS V13.01,2013-04-27 04:36:00,
2013-04-26 23:41:00,45.9,26.3,30.14,NNE,20,0.0,0.0,46,0.00,,---,0.04,VWS V13.01,2013-04-27 04:41:00,
2013-04-26 23:47:00,46.4,26.2,30.14,NNE,20,0.0,0.0,45,0.00,,---,0.04,VWS V13.01,2013-04-27 04:47:00,
2013-04-26 23:53:00,46.9,26.2,30.14,NNE,20,0.0,0.0,44,0.00,,---,0.04,VWS V13.01,2013-04-27 04:53:00,
2013-04-26 23:58:00,47.1,25.8,30.14,NNE,20,0.0,0.0,43,0.00,,---,0.04,VWS V13.01,2013-04-27 04:58:00,